Regional Weather Roundup
Issued by NWS

Home | Current Version | Previous Version | Text Only | Print | Product List | Glossary On
Versions: 1 2 3 4 5 6 7 8 9 10 11 12 13 14 15 16 17 18 19 20 21 22 23 24 25 26 27
000
ASUS42 KFFC 302103
RWRGA
WEATHER ROUNDUP FOR GEORGIA
NATIONAL WEATHER SERVICE PEACHTREE CITY GA
500 PM EDT MON MAY 30 2016

NOTE: "FAIR" INDICATES FEW OR NO CLOUDS BELOW 12,000 FEET WITH NO
SIGNIFICANT WEATHER AND/OR OBSTRUCTIONS TO VISIBILITY.

* = USE WITH CAUTION. THE STATIONS MARKED WITH AN ASTERISK MAY NOT
REPORT WEATHER SUCH AS PRECIPITATION, FOG, OR THUNDER AND ARE NOT
QUALITY CONTROLLED BY NWS.

THE REMARK "TC" DENOTES TEMPERATURE READING IN DEGREES CELSIUS.

GAZ001>058-302200-
NORTH GEORGIA

CITY           SKY/WX    TMP DP  RH WIND       PRES   REMARKS
ATLANTA        MOSUNNY   92  54  27 NW15G21   29.95F HX  90
ATHENS         MOSUNNY   91  58  32 VRB3      29.92F HX  90
CHAMBLEE       MOSUNNY   91  55  29 NW8       29.94F
ROME           SUNNY     92  59  33 W9        29.93F HX  91
WEST ATLANTA   SUNNY     91  57  31 NW7       29.94F
GAINESVILLE    SUNNY     87  59  38 W13G18    29.97S
CARTERSVILLE   SUNNY     88  59  37 VRB6      29.95F


CITY           SKY/WX    TMP DP  RH WIND       PRES   REMARKS
DALTON*        PTSUNNY   88  59  37 N5        29.95S
LAWRENCEVILLE* PTSUNNY   86  63  45 N17       29.97S
KENNESAW*      MOSUNNY   90  55  31 NW8       29.89F
CANTON*        SUNNY     86  41  20 NW5       29.97F
BLAIRSVILLE*     N/A    N/A N/A N/A MISG      30.00F
$$

GAZ059>098-102>109-302200-
CENTRAL GEORGIA

CITY           SKY/WX    TMP DP  RH WIND       PRES   REMARKS
AUGUSTA-BUSH   MOSUNNY   88  63  43 N8        29.88F
AUGUSTA-DANIEL MOSUNNY   89  63  41 NW9       29.91F HX  90
COLUMBUS       SUNNY     92  57  30 N8        29.92F HX  90
MACON          MOSUNNY   90  61  37 NW7       29.91F HX  90


CITY           SKY/WX    TMP DP  RH WIND       PRES   REMARKS
LAGRANGE*      MOSUNNY   94  64  37 NW13      29.94F HX  95
SYLVANIA*      SUNNY     88  69  54 NW8       29.90F HX  92
MILLEDGEVILLE* PTSUNNY   88  61  40 CALM      29.91F
$$

GAZ099>101-110>166-302200-
SOUTH GEORGIA

CITY           SKY/WX    TMP DP  RH WIND       PRES   REMARKS
SAVANNAH       PTSUNNY   87  66  49 NW14      29.89S
VALDOSTA       PTSUNNY   91  68  46 VRB5      29.90F HX  95
ALMA           MOSUNNY   92  62  36 NW6       29.89F HX  92
ST SIMONS      MOSUNNY   91  61  36 VRB3      29.87F HX  91
ALBANY         MOSUNNY   95  58  28 VRB5      29.92F HX  94
BRUNSWICK      SUNNY     95  63  34 W8        29.89S HX  96


CITY           SKY/WX    TMP DP  RH WIND       PRES   REMARKS
BAINBRIDGE*    CLOUDY    95  63  34 NE8       29.91F HX  96
MOULTRIE*      MOSUNNY   91  61  35 N6        29.92F HX  91
VIDALIA*       MOSUNNY   90  61  37 NW10      29.91S
WAYCROSS*      MOSUNNY   93  62  35 NW13      29.89S HX  94
DOUGLAS*       SUNNY     95  57  28 NW8       29.92S HX  94
$$




USA.gov is the U.S. government's official web portal to all federal, state and local government web resources and services.